Weather reports worldwide

Advertisment
Plymouth, United Kingdom (3827): temperature & dewpoint: 15.02.2019 20:00:00 - 21.02.2019 20:00:00 (GMT)Plymouth, United Kingdom (3827): wind speed & gusts: 15.02.2019 20:00:00 - 21.02.2019 20:00:00 (GMT)Plymouth, United Kingdom (3827): wind direction: 15.02.2019 20:00:00 - 21.02.2019 20:00:00 (GMT)Plymouth, United Kingdom (3827): reduced air pressure: 15.02.2019 20:00:00 - 21.02.2019 20:00:00 (GMT)Plymouth, United Kingdom (3827): visibility: 15.02.2019 20:00:00 - 21.02.2019 20:00:00 (GMT)Plymouth, United Kingdom (3827): precipitation: 15.02.2019 20:00:00 - 21.02.2019 20:00:00 (GMT)
Date & Time tt [°C] td [°C] ff [km/h] ff [kn] fx [km/h] fx [kn] dd ppp [hPa] vv [km] rr [mm]
21.02.2019 20:00:00 9,7 8,0 21 11 - - SE 1028,8 10 0,0
21.02.2019 19:00:00 9,4 8,1 16 9 - - SE 1028,6 10 0,0
21.02.2019 18:00:00 9,8 8,0 16 9 - - SE 1027,7 14 0,0
21.02.2019 17:00:00 10,8 8,2 18 10 - - SSE 1027,2 14 0,0
21.02.2019 16:00:00 11,6 8,4 21 11 - - SSE 1027,1 19 0,0
21.02.2019 15:00:00 12,4 8,9 21 11 - - SSE 1026,9 12 0,0
21.02.2019 14:00:00 12,5 9,3 22 12 - - SSE 1026,6 19 0,0
21.02.2019 13:00:00 12,8 9,6 22 12 - - S 1026,4 11 0,0
21.02.2019 12:00:00 12,7 9,6 22 12 - - S 1026,3 15 0,0
21.02.2019 11:00:00 12,1 9,6 24 13 - - S 1026,1 16 0,0
21.02.2019 10:00:00 10,7 9,4 22 12 - - S 1025,8 9 0,0
21.02.2019 09:00:00 10,2 9,4 24 13 - - S 1025,2 8 0,0
21.02.2019 08:00:00 10,1 9,3 26 14 - - S 1024,6 9 0,0
21.02.2019 07:00:00 9,9 9,2 24 13 - - S 1023,8 6 0,0
21.02.2019 06:00:00 10,1 9,3 26 14 - - S 1023,5 9 0,0
21.02.2019 05:00:00 10,0 9,2 28 15 - - S 1023,3 8 0,0
21.02.2019 04:00:00 10,0 9,2 34 18 46 25 S 1022,8 8 0,0
21.02.2019 03:00:00 10,0 9,1 31 17 - - S 1022,8 8 0,0
21.02.2019 02:00:00 10,0 9,1 24 13 - - SSE 1022,6 10 0,0
21.02.2019 01:00:00 10,1 9,1 21 11 - - SSE 1022,4 10 0,0
21.02.2019 00:00:00 10,1 9,1 24 13 - - S 1022,0 9 0,0
20.02.2019 23:00:00 10,1 8,8 24 13 - - S 1022,0 12 0,0
20.02.2019 22:00:00 10,1 8,9 21 11 - - S 1021,6 11 0,0
20.02.2019 21:00:00 9,9 8,9 24 13 - - S 1021,4 12 0,0
20.02.2019 20:00:00 9,9 8,8 24 13 - - S 1021,1 11 0,0
20.02.2019 19:00:00 9,9 8,6 26 14 - - S 1020,5 9 0,0
20.02.2019 18:00:00 10,0 8,5 22 12 - - S 1020,0 11 0,0
20.02.2019 17:00:00 10,2 8,4 24 13 - - S 1019,7 12 0,0
20.02.2019 16:00:00 10,5 8,6 22 12 - - S 1019,6 12 0,0
20.02.2019 15:00:00 10,4 8,9 28 15 - - S 1019,6 9 -
20.02.2019 14:00:00 10,3 8,8 28 15 48 26 S 1019,6 10 -
20.02.2019 13:00:00 11,1 9,1 34 18 46 25 S 1019,4 11 0,0
20.02.2019 12:00:00 11,0 8,9 34 18 - - S 1019,4 11 0,0
20.02.2019 11:00:00 10,4 8,6 29 16 - - S 1019,3 11 0,0
20.02.2019 10:00:00 10,9 8,7 29 16 - - S 1018,7 12 0,0
20.02.2019 09:00:00 10,0 7,6 28 15 - - S 1018,4 12 0,0
20.02.2019 08:00:00 9,5 7,2 28 15 - - SSW 1017,8 13 0,0
20.02.2019 07:00:00 9,1 7,3 26 14 - - S 1017,3 10 0,0
20.02.2019 06:00:00 8,9 7,6 22 12 - - S 1017,2 9 0,0
20.02.2019 05:00:00 9,3 7,4 28 15 - - SSW 1017,2 13 0,0
20.02.2019 04:00:00 9,3 8,2 26 14 - - S 1017,0 9 0,0
20.02.2019 03:00:00 9,2 7,8 24 13 - - S 1017,4 9 0,0
20.02.2019 02:00:00 9,2 7,3 28 15 - - S 1018,0 11 0,0
20.02.2019 01:00:00 8,9 7,6 26 14 - - S 1018,1 9 0,0
20.02.2019 00:00:00 9,2 7,7 24 13 - - S 1018,0 10 0,0
19.02.2019 23:00:00 9,4 7,1 28 15 - - S 1018,2 14 0,0
19.02.2019 22:00:00 9,1 7,0 24 13 - - SSW 1018,3 18 0,0
19.02.2019 21:00:00 9,0 6,8 26 14 - - SSW 1018,3 19 0,0
19.02.2019 20:00:00 8,9 6,4 31 17 - - SSW 1018,3 16 0,0
19.02.2019 19:00:00 9,0 5,8 29 16 - - SSW 1018,2 13 0,0
19.02.2019 18:00:00 8,9 5,7 28 15 - - SSW 1018,2 12 0,0
19.02.2019 17:00:00 9,3 5,8 26 14 - - SSW 1018,3 20 0,0
19.02.2019 16:00:00 9,6 6,3 24 13 - - SSW 1018,6 15 0,0
19.02.2019 15:00:00 10,8 6,6 26 14 - - SSW 1018,9 28 0,0
19.02.2019 14:00:00 11,2 6,2 28 15 - - SSW 1019,1 16 0,0
19.02.2019 13:00:00 11,1 6,3 28 15 - - SSW 1019,5 16 0,0
19.02.2019 12:00:00 10,9 5,9 26 14 - - SSW 1019,9 17 0,0
19.02.2019 11:00:00 10,8 6,6 22 12 - - SSW 1019,9 17 0,0
19.02.2019 10:00:00 8,9 8,4 22 12 - - SSW 1020,0 15 0,2
19.02.2019 09:00:00 4,4 4,2 2 1 - - SSW 1020,0 4,0 0,0
19.02.2019 08:00:00 3,2 3,0 4 2 - - SE 1019,8 6 0,0
19.02.2019 07:00:00 3,4 3,1 5 3 - - E 1019,5 7 0,2
19.02.2019 06:00:00 3,0 2,7 8 4 - - E 1019,4 7 0,0
19.02.2019 05:00:00 2,4 1,9 4 2 - - ENE 1019,3 7 0,0
19.02.2019 04:00:00 3,2 2,7 5 3 - - W 1019,3 8 0,0
19.02.2019 03:00:00 4,4 3,7 4 2 - - WNW 1019,3 7 0,0
19.02.2019 02:00:00 4,6 3,7 5 3 - - W 1019,4 9 0,0
19.02.2019 01:00:00 5,6 4,7 11 6 - - W 1019,3 8 0,0
19.02.2019 00:00:00 5,9 4,5 11 6 - - W 1019,0 9 0,0
18.02.2019 23:00:00 6,8 5,2 16 9 - - W 1018,8 10 0,0
18.02.2019 22:00:00 6,9 4,8 16 9 - - W 1018,5 11 0,0
18.02.2019 21:00:00 7,4 4,8 22 12 - - WSW 1018,1 10 0,0
18.02.2019 20:00:00 6,8 4,3 15 8 - - W 1017,7 11 0,0
18.02.2019 19:00:00 6,7 3,2 18 10 - - W 1017,4 14 0,0
18.02.2019 18:00:00 7,6 3,1 18 10 - - W 1016,4 18 0,0
18.02.2019 17:00:00 9,6 3,9 21 11 - - W 1015,9 22 0,0
18.02.2019 16:00:00 10,8 4,4 16 9 - - W 1015,5 14 0,0
18.02.2019 15:00:00 11,7 6,3 16 9 - - WSW 1015,2 20 0,0
18.02.2019 14:00:00 12,4 7,0 16 9 - - WSW 1015,1 16 0,0
18.02.2019 13:00:00 10,9 6,3 15 8 - - W 1015,2 14 0,0
18.02.2019 12:00:00 9,9 7,1 15 8 - - WSW 1015,2 15 0,0
18.02.2019 11:00:00 11,6 9,1 13 7 - - WSW 1014,9 10 0,0
18.02.2019 10:00:00 9,9 8,7 18 10 - - SSW 1014,6 10 0,0
18.02.2019 09:00:00 9,4 8,5 22 12 - - SSW 1014,5 8 0,0
18.02.2019 08:00:00 9,2 8,3 22 12 - - SSW 1014,4 8 0,0
18.02.2019 07:00:00 9,2 8,4 21 11 - - SSW 1014,0 7 0,0
18.02.2019 06:00:00 9,3 8,3 28 15 - - SSW 1013,9 9 0,0
18.02.2019 05:00:00 9,3 8,3 22 12 - - SSW 1013,9 5 0,0
18.02.2019 04:00:00 9,2 7,8 24 13 - - SSW 1013,9 9 0,0
18.02.2019 03:00:00 9,2 8,0 29 16 - - S 1014,3 10 0,0
18.02.2019 02:00:00 8,6 6,6 29 16 - - S 1014,7 12 0,0
18.02.2019 01:00:00 9,5 8,6 34 18 - - SSW 1014,7 6 0,0
18.02.2019 00:00:00 9,5 8,5 26 14 - - SSW 1014,8 5 0,4
17.02.2019 23:00:00 9,6 8,3 35 19 46 25 SSW 1014,8 6 0,0
17.02.2019 22:00:00 9,7 8,3 35 19 - - SSW 1014,7 8 0,0
17.02.2019 21:00:00 9,6 8,1 34 18 - - SSW 1014,5 7 0,0
17.02.2019 20:00:00 9,4 8,0 22 12 - - SSW 1014,3 6 0,0
17.02.2019 19:00:00 9,7 8,4 26 14 46 25 SSW 1014,1 6 0,0
17.02.2019 18:00:00 9,8 8,8 34 18 48 26 S 1013,8 7 0,0
17.02.2019 17:00:00 9,9 8,8 35 19 48 26 S 1013,6 6 0,0
17.02.2019 16:00:00 10,8 8,9 29 16 - - SSW 1013,6 6 0,0
17.02.2019 15:00:00 11,4 9,2 35 19 - - SSW 1013,5 7 0,0
17.02.2019 14:00:00 11,4 8,9 31 17 - - SSW 1013,6 7 0,0
17.02.2019 13:00:00 11,3 9,1 26 14 - - SSW 1013,5 7 0,0
17.02.2019 12:00:00 10,3 9,2 22 12 - - SSW 1013,4 5 0,0
17.02.2019 11:00:00 10,6 9,9 29 16 - - SSW 1012,9 5 0,0
17.02.2019 10:00:00 10,5 10,0 34 18 55 30 S 1012,4 5 0,0
17.02.2019 09:00:00 10,5 9,3 34 18 48 26 S 1012,2 6 0,0
17.02.2019 08:00:00 10,1 8,7 26 14 - - S 1012,4 10 0,0
17.02.2019 07:00:00 8,7 6,9 13 7 - - SE 1012,2 9 0,0
17.02.2019 06:00:00 9,0 6,4 21 11 - - SE 1011,9 9 0,0
17.02.2019 05:00:00 8,7 6,0 22 12 - - SE 1012,7 13 0,0
17.02.2019 04:00:00 8,8 5,8 18 10 - - SE 1013,9 11 0,0
17.02.2019 03:00:00 9,1 6,0 16 9 - - ESE 1014,4 15 0,0
17.02.2019 02:00:00 9,3 6,0 21 11 - - SE 1015,2 12 0,0
17.02.2019 01:00:00 9,7 6,7 24 13 - - SE 1015,6 13 0,0
17.02.2019 00:00:00 9,2 8,2 18 10 - - SE 1016,6 7 0,0
16.02.2019 23:00:00 9,5 9,0 21 11 - - ESE 1017,4 5 0,0
16.02.2019 22:00:00 9,5 9,0 18 10 - - ESE 1018,5 5 0,0
16.02.2019 21:00:00 9,7 8,9 18 10 - - SE 1019,2 6 0,0
16.02.2019 20:00:00 10,1 8,9 22 12 - - SE 1019,6 17 0,0
16.02.2019 19:00:00 9,9 9,4 18 10 - - SSE 1020,0 10 0,0
16.02.2019 18:00:00 10,2 9,5 21 11 - - S 1020,2 10 0,0
16.02.2019 17:00:00 10,5 10,1 29 16 46 25 S 1020,0 9 0,0
16.02.2019 16:00:00 10,6 10,4 29 16 - - S 1020,3 6 0,0
16.02.2019 15:00:00 10,5 10,4 31 17 - - S 1020,9 2,9 0,0
16.02.2019 14:00:00 10,8 10,7 28 15 - - S 1021,3 3,8 0,2
16.02.2019 13:00:00 10,8 10,7 29 16 - - S 1022,1 1,8 0,0
16.02.2019 12:00:00 10,9 10,8 29 16 - - S 1022,6 2,4 0,0
16.02.2019 11:00:00 10,9 10,8 29 16 - - S 1022,6 2,6 0,0
16.02.2019 10:00:00 10,7 10,7 29 16 - - S 1022,4 2,2 0,0
16.02.2019 09:00:00 10,6 10,6 29 16 - - S 1022,4 1,1 0,0
16.02.2019 08:00:00 10,3 10,2 22 12 - - S 1022,2 2,3 0,0
16.02.2019 07:00:00 10,3 10,2 26 14 - - SSW 1022,2 3,7 0,0
16.02.2019 06:00:00 10,3 10,3 24 13 - - SSW 1022,1 1,6 0,0
16.02.2019 05:00:00 10,3 10,3 24 13 - - SSW 1022,4 0,1 0,0
16.02.2019 04:00:00 10,3 10,2 24 13 - - SSW 1022,1 0,1 0,0
16.02.2019 03:00:00 10,3 10,1 26 14 - - SSW 1022,4 0,3 0,2
16.02.2019 02:00:00 10,3 10,1 24 13 - - SSW 1022,6 0,9 0,0
16.02.2019 01:00:00 10,2 9,9 26 14 - - SSW 1022,8 1,7 0,2
16.02.2019 00:00:00 10,3 9,7 26 14 - - SSW 1023,1 2,4 0,0
15.02.2019 23:00:00 10,4 9,5 24 13 - - SSW 1023,3 8 0,0
15.02.2019 22:00:00 10,4 9,4 26 14 - - S 1023,4 10 0,0
15.02.2019 21:00:00 9,1 8,7 16 9 - - SSE 1023,1 5 0,0
15.02.2019 20:00:00 8,6 7,7 9 5 - - SE 1024,0 6 0,0

tt = temperature
td = dewpoint
ff = wind speed
fx = gusts
dd = wind direction
ppp = reduced air pressure
vv = visibility
rr = precipitation

Next stations